FLOCK 3M-4 (42997 NORAD) Tracking and Keplerian Element Data

This shows tracking and keplerian element data for the satellite.

Feedback or suggestion? Click here.




ElementValue
Catalog42997
NameFLOCK 3M-4
Epoch Orbit1609
Epoch Day45.97957659
Epoch Year2018
RAAN162.3558
Inclination97.3618
Eccentricity0.0016132
Argument of Perigee211.9851
Mean Anonmoly148.0406
Mean Motion15.18583019
Decay Rate3.011E-05
L11 42997U 17068L 18045.97957659 .00003011 00000-0 14845-3 0 9998
L22 42997 97.3618 162.3558 0016132 211.9851 148.0406 15.18583019 16097

Live tracking and technical data element details for FLOCK 3M-4 (NORAD 42997). FLOCK 3M-4 can be tracked NOW for your location showing map with azimuth and elevation plus other details from your city location.

Track the satellite on the map from your city or location and see movement details for azimuth, elevation, latitude, longitude, range, height, and movement on the map or in text.







IsCatalogInMostPopularTable: catalog: 42997, numindb: 91
Update: records affected: 1



GetName: 42997 FLOCK 3M-4

Hit Count: updated at: Sat, 21 Jul 2018 08:01:19 GMT